Acatlixhuayan, Mexico

4:53 AM CST on February 23, 2017 (GMT -0600)
Hermanos Serdan International

Weather History for MMPB - December, 2012

Change the Weather History Date:

Sunday, December 23, 2012

  Actual Average Record
Temperature  
Mean Temperature 58 °F -  
Max Temperature 75 °F 64 °F 75 °F (2012)
Min Temperature 40 °F 41 °F 32 °F (2002)
Degree Days  
Heating Degree Days 8    
Growing Degree Days 8 (Base 50)    
Moisture  
Dew Point 35 °F    
Average Humidity 45    
Maximum Humidity 93    
Minimum Humidity 12    
Precipitation  
Precipitation 0.00 in - - ()
Sea Level Pressure  
Sea Level Pressure 30.20 in    
Wind  
Wind Speed 4 mph ()    
Max Wind Speed 17 mph    
Max Gust Speed -    
Visibility 7.2 miles    
Events      
Averages and records for this station are not official NWS values.
T = Trace of Precipitation, MM = Missing Value Source: Averaged Metar Reports

Daily Weather History Graph

Daily Weather History Graph

Search for Another Location

Airport or City:

Trip Planner

Search our weather history database for the weather conditions in past years. The results will help you decide how hot, cold, wet, or windy it might be!

Date:

Astronomy

Dec. 23, 2012 Rise Set
Actual Time 7:02 AM CST 6:01 PM CST
Civil Twilight 6:38 AM CST 6:25 PM CST
Nautical Twilight 6:11 AM CST 6:53 PM CST
Astronomical Twilight 5:44 AM CST 7:20 PM CST
Moon 2:39 PM CST 3:03 AM CST
Length of Visible Light 11h 47m
Length of Day
10h 59m
Waxing Gibbous, 82% of the Moon is Illuminated
Dec 23
Waxing Gibbous
Dec 28
Full
Jan 4
Last Quarter
Jan 11
New
Jan 18
First Quarter

Hourly Weather History & Observations

Time (CST) Temp. Windchill Dew Point Humidity Pressure Visibility Wind Dir Wind Speed Gust Speed Precip Events Conditions
2:45 AM 45 °F - 29 °F 42% 30.01 in 3 mi Calm Calm - -  
5:45 AM 41 °F - 29 °F 50% 30.07 in 3 mi Calm Calm - -  
6:07 AM 37.4 °F 32.8 °F 33.8 °F 87% 30.35 in 8.0 mi NNW 5.8 mph - N/A   Clear
6:59 AM 37.4 °F 32.1 °F 33.8 °F 87% 30.37 in 8.0 mi NW 6.9 mph - N/A   Clear
7:47 AM 41.0 °F 38.0 °F 37.4 °F 87% 30.39 in 8.0 mi NW 4.6 mph - N/A   Clear
8:44 AM 46.4 °F 44.3 °F 39.2 °F 76% 30.40 in 8.0 mi North 4.6 mph - N/A   Clear
8:50 AM 54 °F - 34 °F 35% 30.17 in 3 mi ENE 2.2 mph - -   Haze
9:45 AM 57.2 °F - 39.2 °F 51% 30.40 in 8.0 mi Calm Calm - N/A   Clear
10:44 AM 62.6 °F - 39.2 °F 42% 30.38 in 8.0 mi Calm Calm - N/A   Clear
11:46 AM 69.8 °F - 35.6 °F 28% 30.34 in 8.0 mi Calm Calm - N/A   Clear
11:50 AM 68 °F - 36 °F 20% 30.06 in 6 mi SSW 4.5 mph - -   Haze
12:48 PM 73.4 °F - 28.4 °F 19% 30.29 in 8.0 mi Calm Calm - N/A   Clear
1:45 PM 73.4 °F - 32.0 °F 22% 30.27 in 8.0 mi South 11.5 mph - N/A   Clear
2:46 PM 71.6 °F - 33.8 °F 25% 30.25 in 8.0 mi SSW 11.5 mph - N/A   Partly Cloudy
2:50 PM 74 °F - 32 °F 12% 29.86 in 9 mi South 6.7 mph - -   Haze
3:42 PM 71.6 °F - 33.8 °F 25% 30.25 in 8.0 mi SSW 11.5 mph - N/A   Partly Cloudy
4:50 PM 68.0 °F - 33.8 °F 28% 30.24 in 8.0 mi SE 17.3 mph - N/A   Partly Cloudy
5:49 PM 62.6 °F - 35.6 °F 37% 30.25 in 8.0 mi South 10.4 mph - N/A   Scattered Clouds
5:50 PM 68 °F - 29 °F 13% 29.76 in 6 mi SSE 6.7 mph - -   Haze
6:45 PM 55.4 °F - 35.6 °F 47% 30.27 in 10.0 mi SSW 9.2 mph - N/A   Clear
7:52 PM 53.6 °F - 37.4 °F 54% 30.29 in 10.0 mi SW 3.5 mph - N/A   Clear
8:45 PM 56 °F - 39 °F 42% 29.76 in 3 mi Calm Calm - -  
9:41 PM 48.2 °F - 35.6 °F 62% 30.33 in 10.0 mi NW 6.9 mph - N/A   Clear
10:47 PM 46.4 °F 42.9 °F 44.6 °F 93% 30.35 in 10.0 mi NW 6.9 mph - N/A   Clear
11:45 PM 51 °F - 31 °F 33% 29.83 in 3 mi NE 2.2 mph - -